Washington County, Wisconsin, United States
Lat: 43.37N, Lon: 88.22W
Wx Zone: WIZ059
Local Info
Past Weather Observations for Today

NOTE: This archive is for the closest National Weather Service station to Washington County. Information may differ from the station used for current weather conditions.

Click here for Long-term Archive

Time Weather Temperature Dewpoint Humidity Pressure Winds Precip Visibility
13:35
Overcast
Hazy
72°F / 22°C 68°F / 20°C 88% 30.04 in
(1017 mb)
E 8.1 mph
(E 13 kph)
- 4SM
13:15
Overcast
Hazy
73°F / 23°C 68°F / 20°C 83% 30.04 in
(1017 mb)
ESE 9.2 mph
(ESE 15 kph)
- 5SM
12:55
Overcast
73°F / 23°C 68°F / 20°C 83% 30.04 in
(1017 mb)
ESE 8.1 mph
(ESE 13 kph)
- 7SM
12:35
Overcast
73°F / 23°C 68°F / 20°C 83% 30.04 in
(1017 mb)
ESE 8.1 mph
(ESE 13 kph)
- 7SM
12:15
Overcast
75°F / 24°C 68°F / 20°C 78% 30.04 in
(1017 mb)
E 5.8 mph
(E 9 kph)
- 7SM
11:55
Overcast
77°F / 25°C 68°F / 20°C 74% 30.04 in
(1017 mb)
E 5.8 mph
(E 9 kph)
- 7SM
11:35
Mostly Cloudy
75°F / 24°C 68°F / 20°C 78% 30.04 in
(1017 mb)
E 5.8 mph
(E 9 kph)
- 7SM
11:15
Overcast
73°F / 23°C 70°F / 21°C 89% 30.04 in
(1017 mb)
ENE 5.8 mph
(ENE 9 kph)
- 7SM
10:55
Overcast
Fog And Mist
73°F / 23°C 72°F / 22°C 94% 30.04 in
(1017 mb)
SE 5.8 mph
(SE 9 kph)
- 5SM
10:35
Overcast
Fog And Mist
72°F / 22°C 70°F / 21°C 94% 30.04 in
(1017 mb)
ESE 4.6 mph
(ESE 7 kph)
- 5SM
10:15
Overcast
Fog And Mist
72°F / 22°C 70°F / 21°C 94% 30.06 in
(1018 mb)
E 5.8 mph
(E 9 kph)
- 3SM
09:55
Overcast
Fog And Mist
72°F / 22°C 70°F / 21°C 94% 30.04 in
(1017 mb)
E 5.8 mph
(E 9 kph)
- 3SM
09:35
Overcast
Fog And Mist
72°F / 22°C 70°F / 21°C 94% 30.04 in
(1017 mb)
ESE 5.8 mph
(ESE 9 kph)
- 3SM
09:15
Overcast
Fog And Mist
72°F / 22°C 70°F / 21°C 94% 30.04 in
(1017 mb)
SE 3.5 mph
(SE 6 kph)
- 2SM
08:55
Overcast
Fog And Mist
72°F / 22°C 70°F / 21°C 94% 30.04 in
(1017 mb)
E 4.6 mph
(E 7 kph)
- 1 3/4SM
08:35
Overcast
Fog And Mist
70°F / 21°C 70°F / 21°C 100% 30.04 in
(1017 mb)
E 4.6 mph
(E 7 kph)
- 2SM
08:15
Overcast
Fog And Mist
70°F / 21°C 68°F / 20°C 94% 30.04 in
(1017 mb)
Calm - 2SM
07:55
Overcast
Fog And Mist
70°F / 21°C 68°F / 20°C 94% 30.04 in
(1017 mb)
Calm - 1 1/2SM
07:35
Overcast
Fog
70°F / 21°C 68°F / 20°C 94% 30.04 in
(1017 mb)
Calm - 1/2SM
07:15
Overcast
Fog
68°F / 20°C 68°F / 20°C 100% 30.04 in
(1017 mb)
E 4.6 mph
(E 7 kph)
- 1/4SM
06:55
Overcast
Fog
68°F / 20°C 68°F / 20°C 100% 30.04 in
(1017 mb)
E 3.5 mph
(E 6 kph)
- 1/4SM
06:35
Overcast
Fog
68°F / 20°C 66°F / 19°C 94% 30.04 in
(1017 mb)
Calm - M1/4SM
06:15
Overcast
Fog
68°F / 20°C 66°F / 19°C 94% 30.01 in
(1016 mb)
Calm - M1/4SM
05:55
Overcast
Fog
68°F / 20°C 66°F / 19°C 94% 30.01 in
(1016 mb)
E 4.6 mph
(E 7 kph)
- M1/4SM
05:35
Overcast
Fog
68°F / 20°C 66°F / 19°C 94% 30.01 in
(1016 mb)
ENE 4.6 mph
(ENE 7 kph)
- M1/4SM
05:15
Overcast
Fog
68°F / 20°C 66°F / 19°C 94% 30.01 in
(1016 mb)
ENE 3.5 mph
(ENE 6 kph)
- M1/4SM
04:55
Overcast
Fog
68°F / 20°C 64°F / 18°C 88% 30.01 in
(1016 mb)
E 3.5 mph
(E 6 kph)
- 1/4SM
04:35
Overcast
Fog
68°F / 20°C 64°F / 18°C 88% 30.01 in
(1016 mb)
Calm - 1/4SM
04:15
Overcast
Fog
68°F / 20°C 64°F / 18°C 88% 30.01 in
(1016 mb)
ENE 3.5 mph
(ENE 6 kph)
- 1/4SM
03:55
Overcast
Fog
66°F / 19°C 64°F / 18°C 94% 30.01 in
(1016 mb)
Calm - 1/4SM
03:35
Overcast
Fog
66°F / 19°C 64°F / 18°C 94% 30.01 in
(1016 mb)
NNE 4.6 mph
(NNE 7 kph)
- 1/4SM
03:15
Overcast
Fog
66°F / 19°C 64°F / 18°C 94% 30.01 in
(1016 mb)
SE 3.5 mph
(SE 6 kph)
- 1/4SM
02:55
Overcast
Fog
66°F / 19°C 64°F / 18°C 94% 30.01 in
(1016 mb)
Calm - 1/4SM
02:35
Overcast
Fog
66°F / 19°C 64°F / 18°C 94% 30.01 in
(1016 mb)
E 3.5 mph
(E 6 kph)
- 1/4SM
02:15
Overcast
Fog
66°F / 19°C 64°F / 18°C 94% 30.01 in
(1016 mb)
NE 4.6 mph
(NE 7 kph)
- 1/4SM
01:55
Overcast
Fog
66°F / 19°C 64°F / 18°C 94% 30.01 in
(1016 mb)
Calm - 1/4SM
01:35
Overcast
Fog
66°F / 19°C 64°F / 18°C 94% 30.01 in
(1016 mb)
Calm - 1/4SM
01:15
Overcast
Fog
66°F / 19°C 64°F / 18°C 94% 30.01 in
(1016 mb)
Calm - 1/4SM
00:55
Overcast
Fog
68°F / 20°C 64°F / 18°C 88% 30.01 in
(1016 mb)
Calm - 1/4SM
00:35
Overcast
Fog
68°F / 20°C 64°F / 18°C 88% 30.01 in
(1016 mb)
SE 3.5 mph
(SE 6 kph)
- 1/4SM
00:15
Overcast
Fog
68°F / 20°C 64°F / 18°C 88% 30.01 in
(1016 mb)
Calm - 1/4SM
Time Weather Temperature Dewpoint Humidity Pressure Winds Precip Visibility


Weather for websites

WeatherForYou.com, LLC is not responsible for any damages or problems caused by this service. Current weather conditions are obtained from the closest station including government and personal stations which may have varying degrees of accuracy. Weather forecasts are derived from the NOAA NDFD. Like all things, this site belongs to Jesus Christ... He just trusts me to maintain it. If you have any questions or comments email webmaster@weatherforyou.com

Copyright © 2014, WeatherForYou.com LLC. All rights reserved.